• MPC Preparation (Info)

  • MPEC 2023-G09 : 2023 FV13

    The following Minor Planet Electronic Circular may be linked-to from your own Web pages, but must not otherwise be redistributed electronically.

    A form allowing access to any MPEC is at the bottom of this page.


    Read MPEC 2023-G08 Read MPEC 2023-G10


    M.P.E.C. 2023-G09                                 Issued 2023 April 1, 09:02 UT
    
         The Minor Planet Electronic Circulars contain information on unusual
             minor planets, routine data on comets and natural satellites,
             and occasional editorial announcements.  They are published
        on behalf of Division F of the International Astronomical Union by the
              Minor Planet Center, Smithsonian Astrophysical Observatory,
                              Cambridge, MA 02138, U.S.A.
    			  
                 Prepared using the Tamkin Foundation Computer Network
    
                                  MPC@CFA.HARVARD.EDU
                URL https://www.minorplanetcenter.net/    ISSN 1523-6714
    
                                    2023 FV13                                
    
    
    Observations:
         K23F13V*KC2023 03 29.10428 12 02 58.639-32 13 31.73               XEG009L87
         K23F13V KC2023 03 29.10582 12 02 58.034-32 13 38.32               XEG009L87
         K23F13V KC2023 03 29.11043 12 02 55.980-32 13 55.60               XEG009L87
         K23F13V KC2023 03 29.11503 12 02 54.007-32 14 15.22         19.2 GXEG009L87
         K23F13V KC2023 03 29.11656 12 02 53.359-32 14 20.94         20.3 GXEG009L87
         K23F13V KC2023 03 29.43636712 00 37.96 -32 36 35.5          19.4 GVEG009474
         K23F13V KC2023 03 29.43876112 00 36.87 -32 36 45.8          20.3 GVEG009474
         K23F13V KC2023 03 29.44115612 00 35.81 -32 36 55.9          20.0 GVEG009474
         K23F13V KC2023 03 29.44235412 00 35.25 -32 37 01.3          19.9 GVEG009474
         K23F13V KC2023 03 29.50766 12 00 06.28 -32 41 44.7          20.1 VqEG009E23
         K23F13V KC2023 03 29.53081 11 59 55.54 -32 43 23.2          19.9 VqEG009E23
         K23F13V KC2023 03 29.55396 11 59 44.80 -32 45 02.2                qEG009E23
         K23F13V KC2023 03 29.58769611 59 28.63 -32 47 18.6          20.1 GVEG009474
         K23F13V KC2023 03 29.59125411 59 26.98 -32 47 33.8          20.0 GVEG009474
         K23F13V KC2023 03 29.59303211 59 26.16 -32 47 41.3          20.1 GVEG009474
         K23F13V KC2023 03 29.59659011 59 24.53 -32 47 56.3          20.0 GVEG009474
         K23F13V KC2023 03 29.78449 11 58 01.961-33 01 31.66         19.8 GXEG009L87
         K23F13V KC2023 03 29.79190 11 57 58.502-33 02 04.52         19.3 GXEG009L87
         K23F13V KC2023 03 29.79941 11 57 54.965-33 02 37.86         19.4 GXEG009L87
         K23F13V KC2023 03 29.96889 11 56 33.250-33 15 01.26         19.5 GXEG009L87
         K23F13V KC2023 03 29.97641 11 56 29.570-33 15 33.95         19.8 GXEG009L87
         K23F13V KC2023 03 29.98389 11 56 25.901-33 16 06.46         19.5 GXEG009L87
         K23F13V |C2023 03 30.18756 11 54 48.91 -33 31 01.2          20.0 GVEG009807
         K23F13V |C2023 03 30.19171 11 54 46.83 -33 31 19.6          20.2 GVEG009807
         K23F13V |C2023 03 30.19586 11 54 44.74 -33 31 37.9          19.9 GVEG009807
         K23F13V KC2023 03 30.79054 11 49 46.918-34 16 26.08         19.5 GXEG009L87
         K23F13V KC2023 03 30.79779 11 49 43.051-34 17 00.24         19.5 GXEG009L87
         K23F13V KC2023 03 30.80499 11 49 39.173-34 17 34.04         19.7 GXEG009L87
         K23F13V KC2023 03 30.95076711 48 22.048-34 28 49.34         18.4 GXEG009Y00
         K23F13V KC2023 03 30.96236811 48 15.807-34 29 43.48         20.3 GXEG009Y00
         K23F13V KC2023 03 31.78332 11 40 30.919-35 34 55.96         19.4 GXEG009L87
         K23F13V KC2023 03 31.79054 11 40 26.506-35 35 31.99         19.8 GXEG009L87
         K23F13V KC2023 03 31.79778 11 40 22.078-35 36 08.10         19.5 GXEG009L87
         K23F13V KC2023 04 01.00630 11 38 11.729-35 53 14.57         19.9 GXEG009L87
         K23F13V KC2023 04 01.01351 11 38 07.181-35 53 49.63         19.5 GXEG009L87
         K23F13V |C2023 04 01.01828 11 38 08.16 -35 54 05.4          19.9 VuEG009807
         K23F13V KC2023 04 01.02084 11 38 02.544-35 54 25.34         19.6 GXEG009L87
         K23F13V |C2023 04 01.02155 11 38 06.10 -35 54 21.7          20.2 VuEG009807
         K23F13V |C2023 04 01.02483 11 38 04.04 -35 54 37.8          20.5 VuEG009807
    
    Observer details:
    474 Mount John Observatory, Lake Tekapo.  Observers A. C. Gilmore, P. M.
        Kilmartin.  Measurer P. M. Kilmartin.  1.0-m f/7.7 reflector + CCD.
    807 Cerro Tololo Observatory, La Serena.  Observers T. Linder, R. Holmes, L.
        Horn.  1.00-m f/10.0 astrograph + CCD, 0.61-m f/6.5 Dall-Kirkham
        Astrograph + CCD.
    E23 Arcadia.  Observer A. Hidas.  0.35-m f/1.9 reflector + CCD.
    L87 Moonbase South Observatory, Hakos.  Observer G. Duszanowicz.  Measurer J.
        Camarasa.  0.28-m f/1.9 reflector + CCD, 0.36-m f/7.7 reflector + CCD.
    Y00 SONEAR Observatory, Oliveira.  Observer C. Jacques.  0.45-m f/2.9
        reflector + CCD.
    
    Orbital elements:
    2023 FV13                                                Earth MOID = 0.1294 AU
    Epoch 2023 Feb. 25.0 TT = JDT 2460000.5                 Veres                   
    M 329.02540              (2000.0)            P               Q                  
    n   0.33281453     Peri.  331.65650     +0.61425445     +0.78555903             
    a   2.0622178      Node   336.00278     -0.68483864     +0.48362748             
    e   0.7915397      Incl.   10.59204     -0.39202998     +0.38600708             
    P   2.96           H   21.53          G   0.15           U   9                  
    Residuals in seconds of arc
    230329 L87  1.2-  0.4-    230329 474  0.1-  0.1-    230330 L87  0.3+  0.0
    230329 L87  0.4-  0.8-    230329 474  0.1-  0.1-    230330 L87  0.2+  0.0
    230329 L87  1.2-  0.6+    230329 474  0.0   0.0     230330 Y00  1.2-  0.8-
    230329 L87  1.0-  0.4-    230329 L87  0.4-  0.0     230330 Y00  0.1+  0.1+
    230329 L87  0.8-  0.1+    230329 L87  0.0   0.1-    230331 L87  0.1+  0.0
    230329 474  0.1-  0.1+    230329 L87  0.2+  0.3-    230331 L87  0.1+  0.0
    230329 474  0.1-  0.0     230329 L87  0.1+  0.1-    230331 L87  0.1+  0.2-
    230329 474  0.2+  0.1+    230329 L87  0.0   0.1-    230401 L87  0.3-  0.2-
    230329 474  0.0   0.2-    230329 L87  0.1-  0.1-    230401 L87  0.2-  0.2-
    230329 E23  0.7+  0.1-    230330 807  0.0   0.0     230401 807  0.0   0.3-
    230329 E23  0.3-  0.5+    230330 807  0.1+  0.0     230401 L87  0.1-  0.2-
    230329 E23  0.9-  0.5+    230330 807  0.1-  0.1+    230401 807  0.0   0.1-
    230329 474  0.1-  0.1+    230330 L87  0.1+  0.1+    230401 807  0.0   0.4+
    
    Ephemeris:
    2023 FV13                a,e,i = 2.06, 0.79, 11                  q = 0.4299
    Date    TT    R. A. (2000) Decl.     Delta      r    Elong.  Phase     V
    2023 03 02    13 05 16.0 -16 32 38   0.6873  1.5737   138.6    24.6    22.8
    ...
    2023 03 17    12 50 11.6 -22 32 35   0.4322  1.3887   151.0    20.3    21.4
    ...
    2023 03 25    12 26 03.5 -28 05 30   0.3125  1.2838   153.2    20.5    20.6
    ...
    2023 03 31    11 47 53.9 -34 32 33   0.2338  1.2022   147.4    26.6    20.0
    2023 04 01    11 38 17.8 -35 52 34   0.2220  1.1883   145.4    28.5    19.9
    2023 04 02    11 27 18.3 -37 16 57   0.2106  1.1744   143.0    30.8    19.8
    ...
    2023 04 08    09 36 02.5 -45 48 47   0.1566  1.0892   120.7    52.2    19.6
    ...
    2023 04 16    05 34 19.5 -37 50 22   0.1480  0.9716    73.5    98.1    20.9
    ...
    2023 05 01    03 00 22.3 -08 01 45   0.3021  0.7416    24.0   146.4    26.1
    
    M. P. C. Staff               (C) Copyright 2023 MPC           M.P.E.C. 2023-G09
    


    Read MPEC 2023-G08 Read MPEC 2023-G10


    MPEC number:

    Enter an MPEC number in one of the following forms:

    • 1997-B01 (the full form)
    • J97B01 (the packed version of the full form)
    • B01 (the abbreviated form)